Change the Weather History Date:

Sunday, February 9, 2014

  Actual Average (KMRB) Record (KMRB)
Temperature  
Mean Temperature 29 °F 33 °F  
Max Temperature 32 °F 42 °F 64 °F (1949)
Min Temperature 26 °F 24 °F -6 °F (1934)
Degree Days  
Heating Degree Days 36 32  
Month to date heating degree days 296  
Since 1 July heating degree days 3379  
Cooling Degree Days 0 0  
Month to date cooling degree days 0  
Year to date cooling degree days 0  
Moisture  
Dew Point 24 °F    
Average Humidity 82    
Maximum Humidity 100    
Minimum Humidity 60    
Precipitation  
Precipitation 0.00 in 0.08 in 1.21 in (1957)
Month to date precipitation 0.74  
Year to date precipitation 3.18  
Sea Level Pressure  
Sea Level Pressure 30.10 in    
Wind  
Wind Speed 1 mph (WSW)    
Max Wind Speed 13 mph    
Max Gust Speed 29 mph    
Visibility 6 miles    
Events      
T = Trace of Precipitation, MM = Missing Value Source: NWS Daily Summary

Daily Weather History Graph

Daily Weather History Graph

Search for Another Location

Airport or City:

Trip Planner

Search our weather history database for the weather conditions in past years. The results will help you decide how hot, cold, wet, or windy it might be!

Date:

Astronomy

Feb. 09, 2014 Rise Set
Actual Time 7:14 AM EST 5:44 PM EST
Civil Twilight 6:46 AM EST 6:12 PM EST
Nautical Twilight 6:14 AM EST 6:44 PM EST
Astronomical Twilight 5:43 AM EST 7:15 PM EST
Moon 1:23 PM EST (2/9) 3:17 AM EST (2/9)
Length of Visible Light 11h 25m
Length of Day
10h 30m
Waxing Gibbous, 77% of the Moon is Illuminated
Feb 9
Waxing Gibbous
Feb 14
Full
Feb 22
Last Quarter
Mar 1
New
Mar 8
First Quarter

Hourly Weather History & Observations

Time (EST) Temp. Windchill Dew Point Humidity Pressure Visibility Wind Dir Wind Speed Gust Speed Precip Events Conditions
12:09 AM 28.4 °F - 19.4 °F 69% 30.20 in 10.0 mi Calm Calm - N/A   Overcast
12:29 AM 28.4 °F - 19.4 °F 69% 30.19 in 10.0 mi Calm Calm - N/A   Overcast
12:49 AM 28.4 °F - 19.4 °F 69% 30.19 in 10.0 mi Calm Calm - N/A   Overcast
1:09 AM 28.4 °F - 19.4 °F 69% 30.19 in 10.0 mi Calm Calm - N/A   Overcast
1:29 AM 28.4 °F - 19.4 °F 69% 30.19 in 10.0 mi Calm Calm - N/A   Mostly Cloudy
1:49 AM 28.4 °F - 19.4 °F 69% 30.19 in 10.0 mi Calm Calm - N/A   Scattered Clouds
2:09 AM 28.4 °F - 19.4 °F 69% 30.19 in 10.0 mi Calm Calm - N/A   Mostly Cloudy
2:29 AM 28.4 °F - 21.2 °F 74% 30.19 in 10.0 mi Calm Calm - N/A   Scattered Clouds
2:49 AM 28.4 °F - 21.2 °F 74% 30.19 in 10.0 mi Calm Calm - N/A   Scattered Clouds
3:09 AM 28.4 °F - 21.2 °F 74% 30.19 in 10.0 mi Calm Calm - N/A   Scattered Clouds
3:29 AM 28.4 °F - 21.2 °F 74% 30.19 in 10.0 mi Calm Calm - N/A   Clear
3:49 AM 28.4 °F - 21.2 °F 74% 30.18 in 10.0 mi Calm Calm - N/A   Clear
4:09 AM 28.4 °F - 21.2 °F 74% 30.18 in 10.0 mi Calm Calm - N/A   Clear
4:30 AM 28.4 °F - 21.2 °F 74% 30.17 in 10.0 mi Calm Calm - N/A   Clear
4:50 AM 28.4 °F - 21.2 °F 74% 30.17 in 10.0 mi Calm Calm - N/A   Scattered Clouds
5:10 AM 28.4 °F - 21.2 °F 74% 30.18 in 10.0 mi Calm Calm - N/A   Overcast
5:30 AM 28.4 °F - 21.2 °F 74% 30.17 in 10.0 mi Calm Calm - N/A   Mostly Cloudy
5:50 AM 28.4 °F - 21.2 °F 74% 30.16 in 10.0 mi Calm Calm - N/A   Mostly Cloudy
6:10 AM 28.4 °F - 23.0 °F 80% 30.16 in 10.0 mi Calm Calm - N/A   Overcast
6:30 AM 26.6 °F - 21.2 °F 80% 30.16 in 10.0 mi Calm Calm - N/A   Overcast
6:50 AM 26.6 °F - 21.2 °F 80% 30.16 in 7.0 mi Calm Calm - N/A   Overcast
7:10 AM 26.6 °F - 21.2 °F 80% 30.17 in 7.0 mi Calm Calm - N/A   Overcast
7:30 AM 26.6 °F - 21.2 °F 80% 30.17 in 7.0 mi Calm Calm - N/A   Overcast
7:50 AM 26.6 °F - 21.2 °F 80% 30.18 in 5.0 mi Calm Calm - N/A   Overcast
8:10 AM 26.6 °F - 23.0 °F 86% 30.18 in 5.0 mi Calm Calm - N/A   Overcast
8:30 AM 26.6 °F 22.6 °F 23.0 °F 86% 30.17 in 4.0 mi SSE 3.5 mph - N/A   Overcast
8:50 AM 26.6 °F - 23.0 °F 86% 30.17 in 3.0 mi Calm Calm - N/A   Overcast
9:10 AM 26.6 °F - 23.0 °F 86% 30.16 in 4.0 mi Calm Calm - N/A   Overcast
9:30 AM 26.6 °F - 23.0 °F 86% 30.15 in 3.0 mi Calm Calm - N/A   Overcast
9:50 AM 26.6 °F - 24.8 °F 93% 30.14 in 4.0 mi Calm Calm - N/A   Overcast
10:10 AM 26.6 °F - 24.8 °F 93% 30.13 in 4.0 mi Calm Calm - N/A   Mostly Cloudy
10:30 AM 28.4 °F - 24.8 °F 86% 30.11 in 4.0 mi Calm Calm - N/A   Mostly Cloudy
10:50 AM 28.4 °F - 24.8 °F 86% 30.10 in 5.0 mi Calm Calm - N/A   Overcast
11:10 AM 28.4 °F - 24.8 °F 86% 30.09 in 10.0 mi Calm Calm - N/A   Overcast
11:30 AM 28.4 °F - 24.8 °F 86% 30.09 in 7.0 mi Calm Calm - N/A   Overcast
11:50 AM 28.4 °F - 24.8 °F 86% 30.08 in 5.0 mi Calm Calm - N/A   Overcast
12:10 PM 28.4 °F - 24.8 °F 86% 30.07 in 4.0 mi Calm Calm - N/A   Overcast
12:30 PM 28.4 °F 23.3 °F 24.8 °F 86% 30.06 in 4.0 mi South 4.6 mph - N/A   Overcast
12:51 PM 28.4 °F 24.6 °F 24.8 °F 86% 30.05 in 7.0 mi South 3.5 mph - N/A   Overcast
1:11 PM 28.4 °F - 24.8 °F 86% 30.03 in 2.5 mi Calm Calm - N/A   Overcast
1:31 PM 28.4 °F - 26.6 °F 93% 30.01 in 1.0 mi Calm Calm - N/A   Overcast
1:51 PM 28.4 °F - 26.6 °F 93% 30.00 in 1.0 mi Calm Calm - N/A   Overcast
2:11 PM 30.2 °F - 26.6 °F 86% 29.99 in 1.0 mi Calm Calm - N/A   Overcast
2:31 PM 30.2 °F - 26.6 °F 86% 29.99 in 0.8 mi Calm Calm - N/A   Overcast
2:51 PM 28.4 °F - 26.6 °F 93% 29.99 in 0.5 mi Calm Calm - N/A   Overcast
3:11 PM 28.4 °F - 26.6 °F 93% 29.99 in 0.8 mi Calm Calm - N/A   Overcast
3:31 PM 28.4 °F - 26.6 °F 93% 29.99 in 0.5 mi Calm Calm - N/A   Overcast
3:51 PM 30.2 °F - 28.4 °F 93% 29.99 in 1.0 mi Calm Calm - N/A   Overcast
4:11 PM 30.2 °F - 26.6 °F 86% 29.99 in 1.5 mi Calm Calm - N/A   Overcast
4:31 PM 28.4 °F - 26.6 °F 93% 29.99 in 1.2 mi Calm Calm - N/A   Overcast
4:51 PM 30.2 °F - 28.4 °F 93% 29.99 in 1.5 mi Calm Calm - N/A   Overcast
5:11 PM 30.2 °F - 28.4 °F 93% 29.99 in 0.8 mi Calm Calm - N/A   Overcast
5:31 PM 28.4 °F - 28.4 °F 100% 30.01 in 1.8 mi Calm Calm - N/A   Overcast
5:51 PM 28.4 °F - 28.4 °F 100% 30.01 in 1.5 mi Calm Calm - N/A   Overcast
6:11 PM 28.4 °F - 28.4 °F 100% 30.02 in 3.0 mi Calm Calm - N/A   Unknown
6:31 PM 28.4 °F - 26.6 °F 93% 30.03 in 2.5 mi Calm Calm - N/A   Unknown
6:51 PM 28.4 °F - 28.4 °F 100% 30.04 in 3.0 mi Calm Calm - N/A   Overcast
7:11 PM 28.4 °F - 28.4 °F 100% 30.05 in 3.0 mi Calm Calm - N/A   Overcast
7:31 PM 28.4 °F 24.6 °F 28.4 °F 100% 30.05 in 4.0 mi SSE 3.5 mph - N/A   Overcast
7:51 PM 28.4 °F - 28.4 °F 100% 30.06 in 5.0 mi Calm Calm - N/A   Overcast
8:11 PM 30.2 °F - 28.4 °F 93% 30.07 in 7.0 mi Calm Calm - N/A   Mostly Cloudy
8:31 PM 30.2 °F 26.7 °F 28.4 °F 93% 30.07 in 7.0 mi NNW 3.5 mph - N/A   Mostly Cloudy
8:51 PM 32.0 °F 24.8 °F 26.6 °F 80% 30.08 in 10.0 mi West 8.1 mph - N/A   Mostly Cloudy
9:11 PM 32.0 °F 24.8 °F 23.0 °F 69% 30.08 in 10.0 mi West 8.1 mph - N/A   Overcast
9:31 PM 32.0 °F 26.4 °F 23.0 °F 69% 30.09 in 10.0 mi NW 5.8 mph - N/A   Mostly Cloudy
9:52 PM 32.0 °F 26.4 °F 23.0 °F 69% 30.10 in 10.0 mi NW 5.8 mph - N/A   Mostly Cloudy
10:12 PM 32.0 °F 25.6 °F 21.2 °F 64% 30.11 in 10.0 mi WSW 6.9 mph 20.7 mph N/A   Mostly Cloudy
10:32 PM 32.0 °F 24.8 °F 21.2 °F 64% 30.13 in 7.0 mi West 8.1 mph 28.8 mph N/A   Overcast
10:52 PM 30.2 °F 26.7 °F 19.4 °F 64% 30.14 in 10.0 mi WNW 3.5 mph - N/A   Overcast
11:12 PM 30.2 °F 20.2 °F 17.6 °F 60% 30.13 in 7.0 mi West 12.7 mph 25.3 mph N/A   Mostly Cloudy
11:32 PM 28.4 °F 19.7 °F 17.6 °F 64% 30.13 in 10.0 mi West 9.2 mph 16.1 mph N/A   Mostly Cloudy
11:52 PM 28.4 °F 24.6 °F 17.6 °F 64% 30.13 in 10.0 mi South 3.5 mph - N/A   Overcast